SCP
0 0 0 0 0 0 0 0 0 0 0 0 0 0 0 0 0 0 0 0 0 0 0 0 0 0 0 0 0 0 0 0 0 0 0 0 0 0 0 0 0 0 0 0 0 0 0 0 0 0 0 0 0 0
0 0 0 0 0 0 0 0 0 0 0 0 0 0 0 0 0 0 0 0 0 0 0 0 0 0 0 0 0 0 0 1 1 0 0 0 0 0 0 0 0 0 0 0 0 0 0 0 -0 0 0 0 0 0
0 0 0 0 0 0 0 0 0 0 0 0 0 0 0 0 0 0 0 0 0 -0 -0 0 0 0 0 0 0 0 1 0 1 1 1 0 0 0 0 0 0 0 0 0 0 0 0 0 0 0 0 0 0 0
0 0 0 0 0 0 0 0 0 0 0 0 0 0 0 -0 0 0 0 0 0 0 0 0 0 0 0 0 0 0 0 0 1 1 0 0 0 0 0 0 0 0 0 0 0 0 0 0 0 0 0 0 0 0
0 0 0 0 0 0 0 0 0 0 0 0 0 0 0 0 0 0 0 0 0 0 0 0 0 0 0 0 0 0 0 0 2 0 0 0 0 0 0 0 0 0 0 0 0 -0 0 0 0 -0 0 0 0 -0
0 0 0 0 0 0 0 0 0 0 0 0 0 0 0 0 0 0 0 0 0 0 0 0 0 0 0 0 0 0 0 1 1 1 0 1 0 0 0 0 0 0 0 0 0 0 -0 -0 0 0 -0 0 0 0
0 0 0 0 0 0 0 0 0 0 0 0 0 0 0 0 0 0 0 0 0 0 0 0 0 0 0 0 0 0 1 1 1 0 0 0 0 0 0 0 0 0 0 0 -0 -0 -0 0 0 0 0 0 0 0
0 0 0 0 0 0 0 0 0 0 0 0 0 0 0 0 0 0 0 0 0 0 0 0 0 0 0 0 0 0 1 1 0 0 0 0 0 0 0 0 0 0 0 0 0 0 -0 -0 -0 0 0 0 0 0
0 0 0 0 0 0 0 0 0 0 0 0 0 0 0 0 0 0 0 0 0 0 0 0 0 0 0 0 0 1 1 0 0 0 0 0 0 0 0 0 0 0 0 0 -0 -0 -0 -0 -0 0 0 0 0 0
0 0 0 0 0 0 0 0 0 0 0 0 0 0 0 0 0 0 0 0 0 0 0 0 0 0 0 0 0 1 1 0 0 0 0 0 0 0 0 0 0 0 0 -0 -0 -0 -0 -0 0 0 0 0 0 0
0 0 0 0 0 0 0 0 0 0 0 0 0 0 0 0 0 0 0 0 0 0 -0 -0 0 0 0 0 1 1 1 0 0 0 0 0 0 0 0 0 0 0 0 0 0 0 -0 -0 0 0 0 0 0 0
0 0 0 0 0 0 0 0 0 0 0 0 0 0 0 0 0 0 0 0 0 0 -0 0 0 0 0 1 0 1 0 0 0 0 0 0 0 0 0 0 0 0 0 0 0 -0 -0 -0 0 0 0 0 0 0
0 0 0 0 0 0 0 0 0 0 0 0 0 0 0 0 0 0 0 0 0 0 0 0 0 1 1 1 0 0 0 0 0 0 0 0 0 0 0 0 0 0 0 0 0 0 -0 -0 -0 0 0 0 0 0
0 0 0 0 0 0 0 0 0 0 0 -0 0 0 0 0 0 0 0 0 0 0 0 1 1 1 1 0 0 0 0 0 0 0 0 0 0 0 0 0 0 0 0 0 0 0 -0 -0 -0 0 0 0 0 0
0 0 0 0 0 0 0 0 0 0 0 -0 0 0 0 0 0 0 0 0 0 0 0 0 0 0 0 0 0 0 0 0 0 0 0 0 0 0 0 0 0 0 0 0 0 0 -0 -0 -0 0 0 0 0 0
0 0 0 0 0 0 0 0 0 0 0 0 0 0 0 0 0 0 0 0 0 0 0 0 1 1 0 0 0 0 0 0 0 0 0 0 0 0 0 0 0 0 0 0 0 0 0 0 0 0 0 0 0 0
0 0 0 0 0 0 0 0 0 0 0 -0 -0 0 0 0 0 0 0 0 0 0 1 1 1 0 0 0 0 0 0 0 0 0 0 0 0 0 0 0 0 0 0 0 0 0 0 0 0 0 0 0 0 0
0 0 0 0 0 0 0 0 0 -0 -0 -0 0 0 0 0 0 0 0 0 0 0 1 0 0 0 0 0 0 1 0 0 0 0 0 0 0 0 0 0 0 0 0 0 0 0 0 0 0 0 0 0 0 0
0 0 0 0 0 0 0 0 -0 -0 -0 0 0 0 0 0 0 0 1 2 1 0 0 0 0 0 0 0 0 0 0 0 0 0 0 0 0 0 0 0 0 0 0 0 0 0 0 0 0 0 0 0 0 0
0 0 0 0 0 0 0 -0 -0 -0 0 0 0 0 0 1 0 1 0 1 0 1 0 0 0 0 0 0 0 0 0 0 0 0 0 0 0 0 0 0 0 0 0 0 0 0 0 0 0 0 0 0 0 0
0 0 0 0 0 0 0 -0 0 0 0 0 1 1 1 1 1 0 0 0 0 1 0 0 1 0 0 0 0 0 0 0 0 0 0 0 0 0 0 0 0 0 0 0 0 0 0 0 0 0 0 0 0 0
0 0 0 0 0 0 -0 -0 0 0 0 0 1 1 1 1 1 1 0 0 0 1 0 1 1 1 1 0 0 0 0 0 0 0 0 0 0 0 0 0 0 0 0 0 0 0 0 0 0 0 0 0 0 0
0 0 0 0 -0 -0 -0 0 0 0 0 0 0 0 0 0 0 0 0 0 0 1 1 1 1 1 1 0 0 0 0 0 0 0 0 0 0 0 0 0 0 0 0 0 0 0 0 0 0 -0 0 0 0 0
0 0 0 -0 -0 0 0 0 0 0 0 0 0 0 0 0 0 0 1 1 1 1 1 1 1 1 1 0 0 0 0 0 0 0 0 0 0 0 0 0 0 0 0 0 0 0 0 0 0 0 0 0 0 0
0 0 0 -0 0 0 0 0 0 0 0 0 0 0 0 0 0 0 0 1 1 1 1 1 1 0 0 0 0 0 0 0 0 0 0 0 0 0 0 0 0 0 0 0 0 0 0 0 0 0 0 0 0 0
0 0 0 0 0 0 0 0 0 0 0 0 0 1 1 1 0 0 0 0 0 0 0 0 0 0 0 0 0 0 0 0 0 0 0 0 0 0 0 0 0 0 0 0 0 0 0 0 0 0 0 0 0 0
0 0 0 0 0 0 0 0 0 0 0 0 0 0 0 0 0 0 0 0 0 0 0 0 0 0 0 0 0 0 0 0 0 0 0 0 0 0 0 0 0 0 0 0 0 0 0 0 0 0 0 0 0 0
0 0 0 0 0 0 0 0 0 0 0 0 0 0 0 0 0 0 0 0 0 0 0 1 0 0 0 0 0 0 0 0 0 0 0 0 0 0 0 0 0 0 0 0 0 0 0 0 0 0 0 0 0 0
0 0 0 0 0 0 0 0 0 0 0 0 0 0 0 0 0 0 0 0 0 0 0 0 0 0 0 0 0 0 0 0 0 0 0 0 0 0 0 0 0 0 0 0 0 0 0 0 0 0 0 0 0 0
0 0 0 0 0 0 0 0 0 0 0 0 0 0 0 0 0 0 0 0 1 0 0 0 0 0 0 0 0 0 0 0 0 0 0 0 0 0 0 0 0 0 0 0 0 0 0 0 0 0 0 0 0 0
0 0 0 0 0 0 0 0 0 0 0 0 0 0 0 0 0 0 0 0 0 0 0 0 0 0 0 0 0 0 0 0 0 0 0 0 0 0 0 0 0 0 0 0 0 0 0 0 0 0 0 0 0 0
0 0 0 0 0 0 0 0 0 0 0 0 0 0 0 0 0 0 0 0 0 0 0 0 0 0 0 0 0 0 0 0 0 0 0 0 0 0 0 0 0 0 0 0 0 0 0 0 0 0 0 0 0 0
0 0 0 0 0 0 0 0 0 0 0 0 0 0 0 0 0 0 0 0 0 0 0 0 0 0 0 0 0 0 0 0 0 0 0 0 0 0 0 0 0 0 0 0 0 0 0 0 0 0 0 0 0 0
Wind_Speed_500mb
56 50 51 46 42 44 41 37 34 32 31 26 20 17 37 35 31 55 57 24 11 15 47 36 36 38 43 38 8 20 6 6 6 6 3 5 4 3 7 11 14 10 10 0 6 10 6 15 11 1 22 41 38 29
58 56 51 50 44 44 42 39 36 34 33 29 22 19 33 47 40 46 54 43 13 32 38 33 37 24 25 15 19 14 9 8 8 2 5 4 6 6 10 5 9 6 9 9 3 8 13 38 49 45 41 43 38 34
61 57 55 51 49 44 42 40 36 36 32 31 27 23 23 44 40 46 51 34 6 20 44 47 57 10 21 21 20 9 6 13 2 8 5 5 6 6 2 5 9 8 20 10 10 10 27 43 45 41 38 37 34 30
61 60 56 54 53 47 43 42 37 37 32 31 30 25 20 47 46 48 54 29 2 15 12 18 15 37 24 27 23 22 24 19 22 7 6 5 4 7 6 8 7 10 15 13 13 26 38 36 36 39 37 34 33 31
63 61 58 57 56 50 45 44 38 37 33 32 31 26 19 43 48 58 57 38 22 9 10 29 37 25 24 25 20 18 22 21 12 2 8 4 6 8 5 7 8 2 15 8 9 52 19 45 39 36 38 35 33 37
65 63 60 59 56 53 47 45 39 38 35 32 29 25 22 40 31 49 26 37 28 16 9 7 14 24 30 22 23 25 19 13 12 4 8 8 5 5 4 6 13 30 23 25 21 56 49 51 41 36 36 35 33 31
63 65 61 59 57 53 49 45 40 40 35 31 27 20 29 36 43 39 18 18 36 19 8 11 11 22 35 26 21 24 15 8 6 5 5 10 4 5 4 6 27 41 46 56 61 70 53 49 46 36 34 35 32 30
62 65 64 59 57 54 49 45 41 41 34 31 29 18 33 41 31 49 31 26 36 33 9 5 8 16 40 22 16 20 13 7 7 6 6 9 8 4 6 27 55 50 54 58 54 45 55 50 44 40 37 36 34 32
62 64 63 59 59 54 50 45 45 42 36 34 29 18 23 26 19 52 19 23 42 18 7 9 7 8 38 28 17 19 8 5 4 4 2 7 5 4 26 50 54 58 33 49 48 51 51 46 41 35 38 34 33 31
65 65 63 61 60 55 51 48 49 42 40 34 25 14 15 26 37 34 14 14 20 14 13 11 18 7 40 25 15 16 12 7 4 5 14 4 2 25 60 59 57 40 50 55 60 51 46 43 41 38 36 31 34 29
66 67 66 64 60 54 53 55 52 46 41 40 17 19 15 51 37 22 14 19 22 11 19 19 35 17 47 16 7 8 6 6 6 7 9 5 5 20 57 59 50 48 51 51 41 43 42 40 40 36 32 29 30 29
67 70 68 64 60 55 57 58 53 55 34 29 14 14 20 21 14 13 15 12 14 14 25 29 28 35 31 29 11 5 5 4 5 9 5 4 7 59 64 57 51 52 44 36 39 41 37 35 34 33 32 31 31 29
73 70 68 62 59 57 60 56 54 56 40 25 9 3 12 15 14 19 24 15 13 21 23 46 15 23 37 27 11 6 6 3 16 5 5 4 29 65 65 59 57 46 43 48 43 38 37 35 32 33 32 31 33 25
74 70 64 60 59 61 59 56 61 54 25 8 10 8 10 14 18 14 30 21 33 42 41 30 13 6 20 9 8 9 6 9 6 9 7 9 56 62 64 62 56 52 55 51 46 42 38 35 30 29 30 30 36 31
69 66 60 58 61 58 56 60 58 52 16 6 5 10 18 23 25 42 55 48 48 46 49 21 15 13 3 9 6 8 8 9 9 7 7 43 63 67 66 59 56 57 52 45 39 38 37 38 37 36 37 38 33 35
68 60 56 61 59 58 63 62 54 41 8 8 15 16 37 23 29 58 56 55 60 51 59 25 7 9 5 8 9 10 14 10 8 9 48 62 68 67 64 62 59 52 45 39 35 38 35 32 32 28 27 36 35 27
69 45 65 63 65 66 61 54 23 14 12 12 18 38 58 33 41 60 69 51 43 35 15 17 4 11 15 10 10 10 6 9 42 49 63 74 74 69 65 64 55 48 43 37 36 29 28 28 23 19 26 24 26 24
42 62 67 70 68 66 48 26 13 14 16 25 16 56 40 53 43 61 49 57 46 54 41 16 23 7 9 12 7 6 25 47 53 62 68 73 70 68 68 64 56 48 41 35 35 35 29 25 20 23 25 22 25 22
55 70 68 67 65 37 16 15 11 8 18 24 53 77 37 59 51 60 48 55 58 40 28 4 5 3 1 17 45 44 52 60 61 63 66 65 66 68 65 59 53 44 37 40 40 31 21 16 18 24 25 24 22 22
60 66 65 66 45 12 10 7 10 9 13 21 36 39 62 41 64 58 62 48 18 44 10 5 2 13 28 48 65 71 66 69 76 67 66 62 64 65 61 56 49 41 40 38 30 24 28 24 17 22 26 25 23 22
62 63 59 47 28 6 8 10 15 19 22 19 3 45 35 54 53 54 45 48 15 11 7 1 11 46 58 56 56 61 65 63 69 75 80 71 64 62 58 51 43 41 41 41 37 24 26 16 19 31 26 24 23 21
49 64 31 28 7 6 9 14 16 19 16 7 20 33 12 21 22 23 52 14 6 16 6 46 57 64 60 61 57 51 51 52 59 61 57 64 66 62 53 45 41 41 39 37 27 24 27 23 9 26 30 25 26 27
44 24 13 7 6 7 10 14 18 10 3 1 9 7 5 8 19 43 11 10 5 15 55 61 62 64 64 56 50 49 50 53 57 61 59 52 52 49 43 40 41 37 37 33 26 27 36 20 14 26 22 27 25 20
35 13 8 8 9 5 10 10 12 7 10 6 9 15 9 11 47 13 8 10 35 56 65 68 66 62 59 58 53 44 51 48 53 54 51 50 49 46 37 44 38 33 33 34 24 28 37 25 26 33 20 28 26 19
10 12 9 9 10 5 11 9 11 12 18 14 11 14 10 24 8 5 7 18 38 50 50 51 55 60 58 50 46 44 43 50 52 51 50 45 48 41 39 32 35 34 36 32 31 28 24 20 27 26 28 21 25 15
8 15 15 14 12 17 10 19 11 33 21 17 4 4 11 8 8 6 3 38 48 47 52 58 61 51 50 47 45 43 43 45 47 45 47 48 46 44 40 41 44 33 27 32 30 23 24 24 26 24 21 23 20 13
7 9 20 22 17 19 8 42 47 30 14 8 8 5 12 10 6 6 23 36 52 51 56 53 49 53 51 45 43 39 37 36 42 41 41 39 33 40 40 38 35 31 26 26 27 24 25 23 22 22 21 19 17 17
12 9 11 9 15 17 31 22 14 10 6 7 4 8 7 8 3 15 26 31 42 42 45 37 43 52 45 50 45 40 46 46 45 45 44 37 33 32 32 32 30 33 32 26 26 22 20 19 15 17 19 18 23 23
11 11 10 8 14 19 18 11 9 9 9 5 6 5 6 10 29 38 42 51 38 40 36 43 61 59 54 46 41 45 44 50 55 53 53 47 40 33 28 29 29 27 25 27 27 23 22 20 19 14 9 14 25 26
12 10 16 6 7 8 8 9 12 13 22 29 26 23 23 31 32 38 36 39 45 48 57 62 61 62 55 53 48 44 43 39 41 44 44 41 38 33 26 24 23 19 19 26 23 19 20 20 21 16 10 6 0 2
12 11 13 16 10 25 24 25 33 29 21 27 39 48 38 25 32 28 25 30 31 42 53 50 47 48 52 48 48 48 40 33 32 34 36 38 35 29 21 18 26 23 18 18 12 11 12 7 12 10 8 9 15 18
15 11 18 12 23 31 31 24 22 36 28 28 23 36 38 19 11 11 26 30 32 39 43 40 46 43 38 42 39 39 42 41 38 34 28 27 29 30 26 26 27 27 26 22 13 11 14 11 11 10 13 16 18 20
41 47 40 25 20 17 31 29 25 26 25 23 29 31 23 12 8 15 33 38 37 42 38 41 44 44 46 43 46 49 43 39 33 35 35 32 30 28 23 22 21 21 18 17 18 15 13 11 10 10 13 16 17 15
Wind_Direction_500mb
236 237 236 235 233 226 227 231 229 224 225 228 235 237 224 227 221 219 215 200 259 296 285 292 311 333 340 9 352 332 42 328 16 57 165 237 109 185 69 137 157 154 159 226 305 97 144 350 77 228 138 123 119 108
232 232 233 231 229 224 224 227 227 221 219 220 229 238 218 224 233 221 226 210 261 254 269 281 277 283 288 287 303 304 314 349 8 88 359 27 51 72 145 141 55 52 140 129 39 145 87 85 109 122 127 116 123 118
227 228 227 228 224 223 223 223 222 218 218 216 220 227 230 209 223 217 216 201 210 278 298 277 267 280 306 241 269 277 3 342 56 2 252 67 62 69 100 166 105 109 123 110 95 111 103 102 108 117 123 120 123 128
224 223 224 223 220 219 222 219 218 214 214 211 218 226 246 206 221 210 209 191 211 291 275 287 286 276 238 231 247 261 279 300 290 330 77 92 93 64 354 128 107 159 98 122 88 127 124 120 123 123 122 124 128 131
221 219 219 219 217 215 218 216 215 210 209 208 216 220 248 200 217 210 205 198 168 279 312 301 300 219 216 239 244 246 259 288 300 301 73 39 39 44 319 79 26 29 156 132 199 165 152 145 141 139 135 132 132 132
217 216 214 213 212 210 212 212 211 206 206 205 212 219 230 191 222 196 219 209 168 182 289 288 279 245 210 231 227 229 244 268 273 24 90 91 70 85 55 88 117 87 118 152 150 163 146 142 144 145 140 144 141 138
211 207 207 206 205 205 208 207 206 202 202 201 207 225 208 189 171 171 170 177 198 172 249 278 268 207 219 204 209 224 209 259 287 76 83 113 63 60 15 112 123 111 117 126 142 138 130 145 137 142 144 146 143 144
206 203 202 202 200 201 202 201 199 196 196 194 202 231 215 205 248 181 148 157 175 180 242 254 253 165 183 188 185 195 201 190 58 122 90 102 111 199 81 110 117 120 124 130 135 148 143 144 141 145 149 144 141 140
199 198 197 196 195 197 195 193 190 189 189 190 194 232 212 217 214 188 149 134 166 207 247 236 222 187 183 193 163 181 155 74 119 98 187 124 190 188 147 136 139 138 141 142 139 139 145 147 146 148 150 152 150 149
194 193 191 190 191 190 188 187 184 184 184 182 190 182 191 212 182 165 138 152 192 226 235 242 275 236 177 168 157 164 156 151 141 243 134 104 71 155 157 155 152 152 152 150 139 142 148 148 151 156 162 166 162 155
190 189 185 186 186 185 183 181 179 177 173 182 193 202 160 155 168 192 180 183 191 218 211 238 237 246 182 152 143 123 169 161 133 231 129 187 149 150 153 152 153 154 156 157 160 160 162 159 157 160 163 168 161 161
182 178 180 182 181 180 180 179 179 175 178 187 182 205 201 173 182 198 182 203 188 205 197 184 239 216 155 157 106 106 108 42 114 152 99 231 196 154 154 153 155 151 151 152 160 159 161 160 160 164 167 168 159 168
173 176 176 176 177 177 176 178 177 183 187 190 206 265 227 197 194 172 178 178 191 189 179 184 213 155 147 134 99 101 118 125 135 112 213 170 148 149 151 152 146 147 155 153 152 155 157 155 163 170 167 172 164 163
168 172 171 172 173 173 175 174 181 184 175 166 183 248 227 194 211 187 179 163 176 192 173 181 90 29 141 100 143 113 97 119 168 177 199 174 152 150 150 148 147 149 147 148 151 154 155 154 158 171 176 173 173 165
168 167 168 170 169 170 169 180 189 191 183 204 180 242 230 249 166 155 166 169 179 192 166 117 97 354 223 127 106 111 148 173 195 180 158 153 154 150 145 149 150 146 149 151 157 159 158 162 167 169 175 175 179 179
160 159 168 166 165 167 175 183 183 187 190 215 230 261 257 177 172 153 172 188 195 164 145 120 70 19 283 166 132 159 162 176 158 143 144 152 151 150 153 155 151 153 157 161 164 165 169 173 183 186 189 188 183 176
160 157 163 162 164 171 179 175 165 175 207 228 253 252 270 248 173 161 179 191 184 190 143 93 66 171 229 122 149 150 158 142 137 141 153 156 154 154 153 152 154 158 161 166 167 173 166 174 181 173 159 158 167 171
154 160 163 164 163 164 165 177 179 202 238 236 251 266 242 191 167 166 181 192 181 200 151 187 170 219 181 139 124 113 105 127 138 147 153 155 156 156 157 156 159 164 167 167 166 173 179 179 173 154 159 162 165 172
160 161 164 165 166 152 153 186 203 249 258 254 258 257 226 179 171 165 171 158 171 190 140 24 95 225 167 108 130 131 130 138 137 143 145 153 157 158 159 161 162 167 171 165 176 183 184 173 172 170 162 162 159 165
156 161 163 171 166 148 162 186 193 249 260 227 244 229 180 184 156 151 154 161 143 148 88 357 150 71 115 140 146 149 149 151 145 135 142 151 159 163 163 164 165 170 166 167 172 168 162 175 188 170 162 165 165 163
152 162 168 172 178 186 196 201 211 240 246 252 353 115 122 132 127 139 147 170 190 98 179 84 125 127 127 136 145 150 151 157 153 156 154 154 163 164 161 167 172 170 168 165 174 173 179 195 173 160 161 162 164 168
160 168 158 174 169 212 250 241 249 261 236 226 106 129 117 112 118 141 152 223 122 160 165 112 118 130 130 137 146 153 147 149 151 147 151 159 157 162 165 170 166 165 166 176 179 179 169 192 162 160 157 165 169 168
148 153 122 174 197 207 251 225 243 255 152 43 88 42 81 104 146 144 114 145 155 217 128 121 125 133 133 134 134 137 145 148 149 153 159 158 168 164 168 170 163 169 172 180 184 161 177 185 148 148 151 154 164 175
158 151 181 210 207 261 275 274 251 228 126 201 134 166 136 121 151 140 114 93 132 130 138 133 136 130 131 132 131 141 151 149 149 158 155 161 159 166 168 160 172 173 176 171 171 181 177 177 166 181 183 163 170 172
162 204 200 214 212 215 263 196 182 183 152 189 141 152 144 138 149 79 91 154 129 133 135 135 137 137 132 131 133 142 149 155 155 153 161 159 159 161 162 165 171 170 173 164 174 171 171 176 172 181 205 191 200 200
226 202 197 207 214 220 191 133 158 133 140 96 322 200 121 68 84 70 113 157 155 152 147 147 140 137 133 142 148 149 151 154 151 154 157 163 164 163 164 162 155 157 173 176 176 182 173 186 177 188 187 189 186 182
248 218 229 235 259 287 226 120 124 119 115 106 241 137 83 167 130 149 142 163 176 158 151 144 148 144 141 143 147 147 147 153 156 156 159 157 158 167 169 169 166 167 169 175 176 186 180 184 178 191 199 210 214 206
253 251 246 214 227 201 120 118 105 94 93 158 167 66 62 45 168 113 137 162 136 150 154 149 154 152 148 146 146 150 148 149 146 143 135 139 150 157 167 174 175 174 171 172 175 179 176 190 197 203 211 215 224 212
248 245 256 147 83 51 42 27 41 46 32 122 64 71 84 112 121 110 110 154 170 148 152 150 143 143 138 139 147 149 152 157 150 146 141 135 142 148 163 165 167 175 184 188 174 174 181 184 189 205 211 190 181 185
270 129 119 69 59 57 44 78 98 93 98 112 112 105 102 116 102 99 103 116 120 128 139 136 138 141 138 141 145 150 150 154 161 159 154 155 165 170 178 182 183 183 173 189 191 198 206 207 209 203 164 152 239 257
148 103 74 63 73 99 103 98 89 87 86 93 123 125 126 115 97 104 112 126 124 136 141 134 136 144 147 153 153 150 149 153 162 165 164 165 168 164 160 157 168 182 187 174 171 167 161 160 190 185 222 218 236 259
91 101 118 118 121 126 115 88 84 105 103 102 103 118 118 105 76 132 144 140 139 144 143 144 147 149 159 151 147 150 149 157 161 157 155 165 180 185 183 174 174 187 204 212 189 183 189 190 209 235 259 260 268 278
108 109 105 99 116 111 115 108 93 100 105 114 131 128 108 87 122 153 150 147 152 153 152 153 155 153 156 162 164 158 164 165 165 166 175 181 177 171 175 183 190 197 202 192 182 198 216 239 256 296 297 296 283 278
Wind_Speed_850mb
56 50 51 46 42 44 41 37 34 32 31 26 20 17 37 35 31 55 57 24 11 15 47 36 36 38 43 38 8 20 6 6 6 6 3 5 4 3 7 11 14 10 10 0 6 10 6 15 11 1 22 41 38 29
58 56 51 50 44 44 42 39 36 34 33 29 22 19 33 47 40 46 54 43 13 32 38 33 37 24 25 15 19 14 9 8 8 2 5 4 6 6 10 5 9 6 9 9 3 8 13 38 49 45 41 43 38 34
61 57 55 51 49 44 42 40 36 36 32 31 27 23 23 44 40 46 51 34 6 20 44 47 57 10 21 21 20 9 6 13 2 8 5 5 6 6 2 5 9 8 20 10 10 10 27 43 45 41 38 37 34 30
61 60 56 54 53 47 43 42 37 37 32 31 30 25 20 47 46 48 54 29 2 15 12 18 15 37 24 27 23 22 24 19 22 7 6 5 4 7 6 8 7 10 15 13 13 26 38 36 36 39 37 34 33 31
63 61 58 57 56 50 45 44 38 37 33 32 31 26 19 43 48 58 57 38 22 9 10 29 37 25 24 25 20 18 22 21 12 2 8 4 6 8 5 7 8 2 15 8 9 52 19 45 39 36 38 35 33 37
65 63 60 59 56 53 47 45 39 38 35 32 29 25 22 40 31 49 26 37 28 16 9 7 14 24 30 22 23 25 19 13 12 4 8 8 5 5 4 6 13 30 23 25 21 56 49 51 41 36 36 35 33 31
63 65 61 59 57 53 49 45 40 40 35 31 27 20 29 36 43 39 18 18 36 19 8 11 11 22 35 26 21 24 15 8 6 5 5 10 4 5 4 6 27 41 46 56 61 70 53 49 46 36 34 35 32 30
62 65 64 59 57 54 49 45 41 41 34 31 29 18 33 41 31 49 31 26 36 33 9 5 8 16 40 22 16 20 13 7 7 6 6 9 8 4 6 27 55 50 54 58 54 45 55 50 44 40 37 36 34 32
62 64 63 59 59 54 50 45 45 42 36 34 29 18 23 26 19 52 19 23 42 18 7 9 7 8 38 28 17 19 8 5 4 4 2 7 5 4 26 50 54 58 33 49 48 51 51 46 41 35 38 34 33 31
65 65 63 61 60 55 51 48 49 42 40 34 25 14 15 26 37 34 14 14 20 14 13 11 18 7 40 25 15 16 12 7 4 5 14 4 2 25 60 59 57 40 50 55 60 51 46 43 41 38 36 31 34 29
66 67 66 64 60 54 53 55 52 46 41 40 17 19 15 51 37 22 14 19 22 11 19 19 35 17 47 16 7 8 6 6 6 7 9 5 5 20 57 59 50 48 51 51 41 43 42 40 40 36 32 29 30 29
67 70 68 64 60 55 57 58 53 55 34 29 14 14 20 21 14 13 15 12 14 14 25 29 28 35 31 29 11 5 5 4 5 9 5 4 7 59 64 57 51 52 44 36 39 41 37 35 34 33 32 31 31 29
73 70 68 62 59 57 60 56 54 56 40 25 9 3 12 15 14 19 24 15 13 21 23 46 15 23 37 27 11 6 6 3 16 5 5 4 29 65 65 59 57 46 43 48 43 38 37 35 32 33 32 31 33 25
74 70 64 60 59 61 59 56 61 54 25 8 10 8 10 14 18 14 30 21 33 42 41 30 13 6 20 9 8 9 6 9 6 9 7 9 56 62 64 62 56 52 55 51 46 42 38 35 30 29 30 30 36 31
69 66 60 58 61 58 56 60 58 52 16 6 5 10 18 23 25 42 55 48 48 46 49 21 15 13 3 9 6 8 8 9 9 7 7 43 63 67 66 59 56 57 52 45 39 38 37 38 37 36 37 38 33 35
68 60 56 61 59 58 63 62 54 41 8 8 15 16 37 23 29 58 56 55 60 51 59 25 7 9 5 8 9 10 14 10 8 9 48 62 68 67 64 62 59 52 45 39 35 38 35 32 32 28 27 36 35 27
69 45 65 63 65 66 61 54 23 14 12 12 18 38 58 33 41 60 69 51 43 35 15 17 4 11 15 10 10 10 6 9 42 49 63 74 74 69 65 64 55 48 43 37 36 29 28 28 23 19 26 24 26 24
42 62 67 70 68 66 48 26 13 14 16 25 16 56 40 53 43 61 49 57 46 54 41 16 23 7 9 12 7 6 25 47 53 62 68 73 70 68 68 64 56 48 41 35 35 35 29 25 20 23 25 22 25 22
55 70 68 67 65 37 16 15 11 8 18 24 53 77 37 59 51 60 48 55 58 40 28 4 5 3 1 17 45 44 52 60 61 63 66 65 66 68 65 59 53 44 37 40 40 31 21 16 18 24 25 24 22 22
60 66 65 66 45 12 10 7 10 9 13 21 36 39 62 41 64 58 62 48 18 44 10 5 2 13 28 48 65 71 66 69 76 67 66 62 64 65 61 56 49 41 40 38 30 24 28 24 17 22 26 25 23 22
62 63 59 47 28 6 8 10 15 19 22 19 3 45 35 54 53 54 45 48 15 11 7 1 11 46 58 56 56 61 65 63 69 75 80 71 64 62 58 51 43 41 41 41 37 24 26 16 19 31 26 24 23 21
49 64 31 28 7 6 9 14 16 19 16 7 20 33 12 21 22 23 52 14 6 16 6 46 57 64 60 61 57 51 51 52 59 61 57 64 66 62 53 45 41 41 39 37 27 24 27 23 9 26 30 25 26 27
44 24 13 7 6 7 10 14 18 10 3 1 9 7 5 8 19 43 11 10 5 15 55 61 62 64 64 56 50 49 50 53 57 61 59 52 52 49 43 40 41 37 37 33 26 27 36 20 14 26 22 27 25 20
35 13 8 8 9 5 10 10 12 7 10 6 9 15 9 11 47 13 8 10 35 56 65 68 66 62 59 58 53 44 51 48 53 54 51 50 49 46 37 44 38 33 33 34 24 28 37 25 26 33 20 28 26 19
10 12 9 9 10 5 11 9 11 12 18 14 11 14 10 24 8 5 7 18 38 50 50 51 55 60 58 50 46 44 43 50 52 51 50 45 48 41 39 32 35 34 36 32 31 28 24 20 27 26 28 21 25 15
8 15 15 14 12 17 10 19 11 33 21 17 4 4 11 8 8 6 3 38 48 47 52 58 61 51 50 47 45 43 43 45 47 45 47 48 46 44 40 41 44 33 27 32 30 23 24 24 26 24 21 23 20 13
7 9 20 22 17 19 8 42 47 30 14 8 8 5 12 10 6 6 23 36 52 51 56 53 49 53 51 45 43 39 37 36 42 41 41 39 33 40 40 38 35 31 26 26 27 24 25 23 22 22 21 19 17 17
12 9 11 9 15 17 31 22 14 10 6 7 4 8 7 8 3 15 26 31 42 42 45 37 43 52 45 50 45 40 46 46 45 45 44 37 33 32 32 32 30 33 32 26 26 22 20 19 15 17 19 18 23 23
11 11 10 8 14 19 18 11 9 9 9 5 6 5 6 10 29 38 42 51 38 40 36 43 61 59 54 46 41 45 44 50 55 53 53 47 40 33 28 29 29 27 25 27 27 23 22 20 19 14 9 14 25 26
12 10 16 6 7 8 8 9 12 13 22 29 26 23 23 31 32 38 36 39 45 48 57 62 61 62 55 53 48 44 43 39 41 44 44 41 38 33 26 24 23 19 19 26 23 19 20 20 21 16 10 6 0 2
12 11 13 16 10 25 24 25 33 29 21 27 39 48 38 25 32 28 25 30 31 42 53 50 47 48 52 48 48 48 40 33 32 34 36 38 35 29 21 18 26 23 18 18 12 11 12 7 12 10 8 9 15 18
15 11 18 12 23 31 31 24 22 36 28 28 23 36 38 19 11 11 26 30 32 39 43 40 46 43 38 42 39 39 42 41 38 34 28 27 29 30 26 26 27 27 26 22 13 11 14 11 11 10 13 16 18 20
41 47 40 25 20 17 31 29 25 26 25 23 29 31 23 12 8 15 33 38 37 42 38 41 44 44 46 43 46 49 43 39 33 35 35 32 30 28 23 22 21 21 18 17 18 15 13 11 10 10 13 16 17 15
Wind_Direction_850mb
236 237 236 235 233 226 227 231 229 224 225 228 235 237 224 227 221 219 215 200 259 296 285 292 311 333 340 9 352 332 42 328 16 57 165 237 109 185 69 137 157 154 159 226 305 97 144 350 77 228 138 123 119 108
232 232 233 231 229 224 224 227 227 221 219 220 229 238 218 224 233 221 226 210 261 254 269 281 277 283 288 287 303 304 314 349 8 88 359 27 51 72 145 141 55 52 140 129 39 145 87 85 109 122 127 116 123 118
227 228 227 228 224 223 223 223 222 218 218 216 220 227 230 209 223 217 216 201 210 278 298 277 267 280 306 241 269 277 3 342 56 2 252 67 62 69 100 166 105 109 123 110 95 111 103 102 108 117 123 120 123 128
224 223 224 223 220 219 222 219 218 214 214 211 218 226 246 206 221 210 209 191 211 291 275 287 286 276 238 231 247 261 279 300 290 330 77 92 93 64 354 128 107 159 98 122 88 127 124 120 123 123 122 124 128 131
221 219 219 219 217 215 218 216 215 210 209 208 216 220 248 200 217 210 205 198 168 279 312 301 300 219 216 239 244 246 259 288 300 301 73 39 39 44 319 79 26 29 156 132 199 165 152 145 141 139 135 132 132 132
217 216 214 213 212 210 212 212 211 206 206 205 212 219 230 191 222 196 219 209 168 182 289 288 279 245 210 231 227 229 244 268 273 24 90 91 70 85 55 88 117 87 118 152 150 163 146 142 144 145 140 144 141 138
211 207 207 206 205 205 208 207 206 202 202 201 207 225 208 189 171 171 170 177 198 172 249 278 268 207 219 204 209 224 209 259 287 76 83 113 63 60 15 112 123 111 117 126 142 138 130 145 137 142 144 146 143 144
206 203 202 202 200 201 202 201 199 196 196 194 202 231 215 205 248 181 148 157 175 180 242 254 253 165 183 188 185 195 201 190 58 122 90 102 111 199 81 110 117 120 124 130 135 148 143 144 141 145 149 144 141 140
199 198 197 196 195 197 195 193 190 189 189 190 194 232 212 217 214 188 149 134 166 207 247 236 222 187 183 193 163 181 155 74 119 98 187 124 190 188 147 136 139 138 141 142 139 139 145 147 146 148 150 152 150 149
194 193 191 190 191 190 188 187 184 184 184 182 190 182 191 212 182 165 138 152 192 226 235 242 275 236 177 168 157 164 156 151 141 243 134 104 71 155 157 155 152 152 152 150 139 142 148 148 151 156 162 166 162 155
190 189 185 186 186 185 183 181 179 177 173 182 193 202 160 155 168 192 180 183 191 218 211 238 237 246 182 152 143 123 169 161 133 231 129 187 149 150 153 152 153 154 156 157 160 160 162 159 157 160 163 168 161 161
182 178 180 182 181 180 180 179 179 175 178 187 182 205 201 173 182 198 182 203 188 205 197 184 239 216 155 157 106 106 108 42 114 152 99 231 196 154 154 153 155 151 151 152 160 159 161 160 160 164 167 168 159 168
173 176 176 176 177 177 176 178 177 183 187 190 206 265 227 197 194 172 178 178 191 189 179 184 213 155 147 134 99 101 118 125 135 112 213 170 148 149 151 152 146 147 155 153 152 155 157 155 163 170 167 172 164 163
168 172 171 172 173 173 175 174 181 184 175 166 183 248 227 194 211 187 179 163 176 192 173 181 90 29 141 100 143 113 97 119 168 177 199 174 152 150 150 148 147 149 147 148 151 154 155 154 158 171 176 173 173 165
168 167 168 170 169 170 169 180 189 191 183 204 180 242 230 249 166 155 166 169 179 192 166 117 97 354 223 127 106 111 148 173 195 180 158 153 154 150 145 149 150 146 149 151 157 159 158 162 167 169 175 175 179 179
160 159 168 166 165 167 175 183 183 187 190 215 230 261 257 177 172 153 172 188 195 164 145 120 70 19 283 166 132 159 162 176 158 143 144 152 151 150 153 155 151 153 157 161 164 165 169 173 183 186 189 188 183 176
160 157 163 162 164 171 179 175 165 175 207 228 253 252 270 248 173 161 179 191 184 190 143 93 66 171 229 122 149 150 158 142 137 141 153 156 154 154 153 152 154 158 161 166 167 173 166 174 181 173 159 158 167 171
154 160 163 164 163 164 165 177 179 202 238 236 251 266 242 191 167 166 181 192 181 200 151 187 170 219 181 139 124 113 105 127 138 147 153 155 156 156 157 156 159 164 167 167 166 173 179 179 173 154 159 162 165 172
160 161 164 165 166 152 153 186 203 249 258 254 258 257 226 179 171 165 171 158 171 190 140 24 95 225 167 108 130 131 130 138 137 143 145 153 157 158 159 161 162 167 171 165 176 183 184 173 172 170 162 162 159 165
156 161 163 171 166 148 162 186 193 249 260 227 244 229 180 184 156 151 154 161 143 148 88 357 150 71 115 140 146 149 149 151 145 135 142 151 159 163 163 164 165 170 166 167 172 168 162 175 188 170 162 165 165 163
152 162 168 172 178 186 196 201 211 240 246 252 353 115 122 132 127 139 147 170 190 98 179 84 125 127 127 136 145 150 151 157 153 156 154 154 163 164 161 167 172 170 168 165 174 173 179 195 173 160 161 162 164 168
160 168 158 174 169 212 250 241 249 261 236 226 106 129 117 112 118 141 152 223 122 160 165 112 118 130 130 137 146 153 147 149 151 147 151 159 157 162 165 170 166 165 166 176 179 179 169 192 162 160 157 165 169 168
148 153 122 174 197 207 251 225 243 255 152 43 88 42 81 104 146 144 114 145 155 217 128 121 125 133 133 134 134 137 145 148 149 153 159 158 168 164 168 170 163 169 172 180 184 161 177 185 148 148 151 154 164 175
158 151 181 210 207 261 275 274 251 228 126 201 134 166 136 121 151 140 114 93 132 130 138 133 136 130 131 132 131 141 151 149 149 158 155 161 159 166 168 160 172 173 176 171 171 181 177 177 166 181 183 163 170 172
162 204 200 214 212 215 263 196 182 183 152 189 141 152 144 138 149 79 91 154 129 133 135 135 137 137 132 131 133 142 149 155 155 153 161 159 159 161 162 165 171 170 173 164 174 171 171 176 172 181 205 191 200 200
226 202 197 207 214 220 191 133 158 133 140 96 322 200 121 68 84 70 113 157 155 152 147 147 140 137 133 142 148 149 151 154 151 154 157 163 164 163 164 162 155 157 173 176 176 182 173 186 177 188 187 189 186 182
248 218 229 235 259 287 226 120 124 119 115 106 241 137 83 167 130 149 142 163 176 158 151 144 148 144 141 143 147 147 147 153 156 156 159 157 158 167 169 169 166 167 169 175 176 186 180 184 178 191 199 210 214 206
253 251 246 214 227 201 120 118 105 94 93 158 167 66 62 45 168 113 137 162 136 150 154 149 154 152 148 146 146 150 148 149 146 143 135 139 150 157 167 174 175 174 171 172 175 179 176 190 197 203 211 215 224 212
248 245 256 147 83 51 42 27 41 46 32 122 64 71 84 112 121 110 110 154 170 148 152 150 143 143 138 139 147 149 152 157 150 146 141 135 142 148 163 165 167 175 184 188 174 174 181 184 189 205 211 190 181 185
270 129 119 69 59 57 44 78 98 93 98 112 112 105 102 116 102 99 103 116 120 128 139 136 138 141 138 141 145 150 150 154 161 159 154 155 165 170 178 182 183 183 173 189 191 198 206 207 209 203 164 152 239 257
148 103 74 63 73 99 103 98 89 87 86 93 123 125 126 115 97 104 112 126 124 136 141 134 136 144 147 153 153 150 149 153 162 165 164 165 168 164 160 157 168 182 187 174 171 167 161 160 190 185 222 218 236 259
91 101 118 118 121 126 115 88 84 105 103 102 103 118 118 105 76 132 144 140 139 144 143 144 147 149 159 151 147 150 149 157 161 157 155 165 180 185 183 174 174 187 204 212 189 183 189 190 209 235 259 260 268 278
108 109 105 99 116 111 115 108 93 100 105 114 131 128 108 87 122 153 150 147 152 153 152 153 155 153 156 162 164 158 164 165 165 166 175 181 177 171 175 183 190 197 202 192 182 198 216 239 256 296 297 296 283 278